Regional Weather Roundup
Issued by NWS Burlington, VT

Home | Current Version | Previous Version | Text Only | Print | Product List | Glossary On
Versions: 1 2 3 4 5 6 7 8 9 10 11 12 13 14 15 16 17 18 19 20 21 22 23 24 25 26 27 28 29 30 31 32 33 34 35 36 37 38 39 40 41 42 43 44 45 46 47 48 49 50
000
ASUS41 KBTV 291530
RWRBTV
VERMONT REGIONAL WEATHER ROUNDUP
NATIONAL WEATHER SERVICE BURLINGTON VT
1100 AM EDT MON MAY 29 2017

NOTE: "FAIR" INDICATES FEW OR NO CLOUDS BELOW 12,000 FEET WITH NO
SIGNIFICANT WEATHER AND/OR OBSTRUCTIONS TO VISIBILITY.

* THESE REPORTS ARE NOT UNDER NWS QUALITY CONTROL AND/OR DO NOT
  REPORT WEATHER SUCH AS PRECIPITATION AND FOG.

VTZ001>019-291600-
_____VERMONT_____


CITY           SKY/WX    TMP DP  RH WIND       PRES   REMARKS
BURLINGTON     LGT RAIN  62  50  64 S13G22    29.91R
MONTPELIER     LGT RAIN  53  51  93 SE9       30.01R
MORRISVILLE    CLOUDY    58  48  69 S9G20     29.95S
ST. JOHNSBURY*   N/A     58  50  75 MISG      29.95R
LYNDONVILLE*   CLOUDY    56  50  79 SE8       29.98S
MIDDLEBURY*    RAIN      56  51  84 S7        29.94R
RUTLAND*       LGT RAIN  55  49  80 S7        29.96R
SPRINGFIELD    LGT RAIN  56  47  71 SE9       29.99R
HIGHGATE*      CLOUDY    63  51  64 S14G25    29.90R
NEWPORT*       CLOUDY    60  52  75 S14       29.95S
BENNINGTON     LGT RAIN  55  51  86 CALM      29.95R FOG
ISLAND POND*     N/A     59 N/A N/A E12         N/A
GALLUP MILLS*    N/A     59 N/A N/A MISG        N/A
UNION VILLAGE*   N/A     54 N/A N/A MISG        N/A
MT. MANSFIELD*   N/A     45 N/A N/A E28G43      N/A

_____LAKE CHAMPLAIN_____


CITY           SKY/WX    TMP DP  RH WIND       PRES   REMARKS
BURTON ISLAND*   N/A     61  52  72 S16G22      N/A
COLCHESTER RF*   N/A     57  50  77 S25         N/A
DIAMOND ISL*     N/A     59  50  72 S17G23      N/A

$$

NYZ007-026>031-035-052-083-087-291600-
_____NORTHERN NEW YORK_____


CITY           SKY/WX    TMP DP  RH WIND       PRES   REMARKS
PLATTSBURGH    LGT RAIN  59  53  80 S12       29.89R
SARANAC LAKE   RAIN      53  51  93 S13G18    29.86S FOG
MASSENA        RAIN      59  56  89 VRB5      29.83R
OGDENSBURG*    RAIN      57  55  94 S7G17     29.79F
POTSDAM*       LGT RAIN  57  57 100 S12G21    29.81S
STARK FALLS*     N/A     55 N/A N/A SE20        N/A
WATERTOWN      LGT RAIN  57  55  93 S12G21    29.78R
FT DRUM        RAIN      55  54  94 S18       29.80R FOG
ALBANY         RAIN      56  52  86 S6        29.95R FOG
GLENS FALLS    LGT RAIN  56  51  84 S9        29.95S

$$
NHZ002-005-011-291600-
_____NEW HAMPSHIRE_____


CITY           SKY/WX    TMP DP  RH WIND       PRES   REMARKS
LEBANON        LGT RAIN  56  49  77 VRB5      29.98F
KEENE          CLOUDY    57  48  72 CALM      29.99S
MT WASHINGTON  FOG       37  37 100 SE24G31     N/A  VSB 3/16WCI  26
PLYMOUTH       CLOUDY    51  47  87 E5        30.03S
WHITEFIELD     CLOUDY    57  46  66 S10G21    29.97S

$$

_____REGIONAL QUEBEC LOCATIONS_____


CITY           SKY/WX    TMP DP  RH WIND       PRES   REMARKS
MONTREAL       CLOUDY    64  52  63 SE20G26   29.85R
QUEBEC CITY    PTSUNNY   59  48  67 E14G24    29.97S
SHERBROOKE     CLOUDY    63  50  63 SE20G29   29.94R

_____REGIONAL ONTARIO LOCATIONS_____


CITY           SKY/WX    TMP DP  RH WIND       PRES   REMARKS
OTTAWA         LGT RAIN  57  57 100 SE16G22   29.79R FOG

______KEY______
VSB  - VISIBILITY IN MILES
WCI  - WIND CHILL INDEX
HX   - HEAT INDEX
$$
NNNN



USA.gov is the U.S. government's official web portal to all federal, state and local government web resources and services.